This demonstration page uses our WeatherBlox Daily Observations layout. Learn more.

Left ArrowRight Arrow

39.08367, -84.50855

Hourly Observations for April 6, 2019

Temp ( °F °C ) Dew Point ( °F °C ) Humidity (%) Winds ( mph kmh ) Pressure ( in mb ) Visibility ( mi km ) Precip ( " mm )
12:53 am 00:53 Cloudy 53 11.7 50 10 89 89 Calm 30.14 1021 10 16.0934 0 0
1:53 am 01:53 Cloudy 53 11.7 50 10 89 89 Calm 30.14 1021 10 16.0934 0 0
2:53 am 02:53 Cloudy 52 11.1 50 10 93 93 Calm 30.13 1020 7 11.26538 0 0
3:53 am 03:53 Cloudy 52 11.1 50 10 93 93 Calm 30.13 1020 8 12.87472 0 0
4:53 am 04:53 Cloudy 52 11.1 50 10 93 93 Calm 30.14 1021 7 11.26538 0 0
5:53 am 05:53 Cloudy with Mist and Fog 51 10.6 50 10 96 96 Calm 30.15 1021 6 9.65604 0 0
6:53 am 06:53 Cloudy with Mist and Fog 51 10.6 50 10 96 96 SSW 3 6 30.15 1021 6 9.65604 0 0
7:53 am 07:53 Cloudy 51 10.6 50 10 96 96 Calm 30.18 1022 10 16.0934 0 0
8:53 am 08:53 Cloudy 53 11.7 51 10.6 93 93 Calm 30.19 1023 10 16.0934 0 0
9:53 am 09:53 Cloudy 56 13.3 51 10.6 84 84 Calm 30.19 1022 10 16.0934 0 0
10:53 am 10:53 Cloudy 59 15 52 11.1 78 78 SSW 3 6 30.2 1023 8 12.87472 0 0
11:53 am 11:53 Cloudy 62 16.7 51 10.6 67 67 Calm 30.22 1023 10 16.0934 0 0
12:53 pm 12:53 Cloudy 65 18.3 47 8.3 52 52 Calm 30.21 1023 10 16.0934 0 0
1:53 pm 13:53 Cloudy 65 18.3 45 7.2 49 49 Calm 30.19 1022 10 16.0934 0 0
2:53 pm 14:53 Mostly Cloudy 69 20.6 46 7.8 44 44 Calm 30.15 1021 10 16.0934 0 0
3:53 pm 15:53 Mostly Cloudy 67 19.4 46 7.8 47 47 W 5 7 30.13 1020 10 16.0934 0 0
4:53 pm 16:53 Cloudy 70 21.1 47 8.3 44 44 WNW 3 6 30.11 1020 10 16.0934 0 0
5:53 pm 17:53 Mostly Cloudy 70 21.1 46 7.8 42 42 SW 9 15 30.11 1020 10 16.0934 0 0
6:53 pm 18:53 Mostly Sunny 68 20 47 8.3 47 47 SE 3 6 30.09 1019 10 16.0934 0 0
7:53 pm 19:53 Sunny 66 18.9 44 6.7 45 45 ESE 5 7 30.11 1020 10 16.0934 0 0
8:53 pm 20:53 Clear 58 14.4 48 8.9 70 70 Calm 30.12 1020 10 16.0934 0 0
9:53 pm 21:53 Clear 55 12.8 46 7.8 72 72 Calm 30.14 1021 10 16.0934 0 0
10:53 pm 22:53 Clear 51 10.6 46 7.8 83 83 ENE 3 6 30.14 1021 10 16.0934 0 0
11:53 pm 23:53 Clear 49 9.4 46 7.8 90 90 Calm 30.12 1020 10 16.0934 0 0

Powered by AerisWeather